Home   Weather   Monticello   Past weeks

Flag for USA Past Weather in Monticello, Kentucky, USA — Yesterday and Last 2 Weeks

Now
49 °F

Passing clouds.


Feels Like: 49 °F
Forecast: 49 / 74 °F
Wind: No wind

Location: London-Corbin Airport-Magee Field

Current Time: Sep 27, 2016 at 6:35:49 AM

Latest Report: Sep 27, 2016 at 5:53 AM


Visibility: 10 mi

Pressure: 30.04 "Hg

Humidity: 90%

Dew Point: 46 °F

Location of MonticelloLocation

Past Weather in Monticello — Graph

°F

Monticello Temperature Yesterday

Maximum temperature yesterday: 81 °F (at 11:53 AM)
Minimum temperature yesterday: 60 °F (at 11:53 PM)
Average temperature yesterday: 70 °F

High & Low Weather Summary for the Past Weeks

 TemperatureHumidityPressure
High91 °F (Sep 13, 4:53 PM)97% (Sep 19, 7:53 AM)30.21 "Hg (Sep 19, 7:53 AM)
Low50 °F (Sep 27, 4:53 AM)24% (Sep 12, 3:53 PM)29.96 "Hg (Sep 18, 4:53 PM)
Average72 °F72%30.08 "Hg
* Reported Sep 12 4:53 AM — Sep 27 4:53 AM, Monticello, Weather by CustomWeather, © 2016

Note: Actual official high and low records may vary slightly from our data, if they occured in-between our weather recording intervals... More about our weather records

Advertising

Monticello Weather History for the Previous 24 Hours

Scroll right to see more
 ConditionsComfort  
Time TempWeatherWind HumidityBarometerVisibility
4:53 AM
Tue, Sep 27
50 °FPassing clouds.No wind89%30.04 "Hg10 mi
4:04 AM52 °FFog.No wind89%30.06 "Hg2 mi
4:00 AM52 °FPassing clouds.No wind86%30.06 "Hg8 mi
2:53 AM53 °FClear.No wind93%30.06 "Hg7 mi
1:53 AM55 °FClear.No wind90%30.06 "Hg10 mi
12:53 AM59 °FClear.5 mph81%30.07 "Hg10 mi
11:53 PM
Mon, Sep 26
60 °FClear.5 mph80%30.06 "Hg10 mi
10:53 PM62 °FPassing clouds.5 mph78%30.06 "Hg10 mi
9:53 PM65 °FOvercast.9 mph78%30.05 "Hg10 mi
8:53 PM67 °FOvercast.7 mph76%30.05 "Hg10 mi
7:53 PM68 °FMostly cloudy.6 mph76%30.03 "Hg10 mi
6:53 PM70 °FOvercast.9 mph71%30.02 "Hg10 mi
5:53 PM74 °FPassing clouds.7 mph64%30.00 "Hg10 mi
4:53 PM74 °FScattered clouds.7 mph67%30.00 "Hg10 mi
3:53 PM74 °FMostly cloudy.6 mph71%30.02 "Hg10 mi
2:53 PM72 °FCloudy.12 mph76%30.03 "Hg8 mi
2:00 PM77 °FMore clouds than sun.12 mph64%30.06 "Hg10 mi
12:53 PM77 °FPartly sunny.9 mph64%30.04 "Hg10 mi
11:53 AM81 °FSunny.15 mph54%30.03 "Hg10 mi
10:53 AM78 °FPassing clouds.13 mph58%30.03 "Hg10 mi
9:53 AM75 °FScattered clouds.7 mph69%30.01 "Hg10 mi
8:53 AM70 °FPassing clouds.3 mph81%30.01 "Hg10 mi
7:53 AM65 °FFog.No wind91%29.99 "Hg3 mi
6:53 AM65 °FFog.No wind91%29.98 "Hg6 mi
Weather by CustomWeather, © 2016

See weather overviewHow to use our weather pages